Location: *
(49.0044°N, 9.5056°E)
Time: 13:42:18
(UTC+00:00)

Meteor 1-15 Rocket - Pass Details

Date: 22 September 2019
Orbit: 840 x 907 km, 81.2° (Epoch: 16 October)

Event Time Altitude Azimuth Distance (km) Brightness Sun altitude
Rises 18:42:10 0° 187° (S) 3,461 7.3 -14.0°
Reaches altitude 10° 18:44:34 10° 187° (S) 2,536 6.6 -14.4°
Maximum altitude 18:50:22 84° 100° (E) 905 4.3 -15.3°
Drops below altitude 10° 18:56:18 10° 13° (NNE) 2,592 6.8 -16.2°
Sets 18:58:47 0° 13° (NNE) 3,542 7.5 -16.6°
